Meath Environmental Platform

Observations for Trim Patrick St

Time AQI Temp °C Hum % Pres Pa CO μg/m³ H₂S μg/m³ NO μg/m³ NO₂ μg/m³ O₃ μg/m³ SO₂ μg/m³ PM1 μg/m³ PM2.5 μg/m³ PM10 μg/m³
Saturday 8 August 2026
04:35 1 14.7 74 38,460 0.2 1.25 3.14 12.1 23.15 0 4.57 9.15 10.07
04:34 1 14.7 74 38,460 0.2 1.97 3.18 26.88 16.92 0 3.71 7.01 7.71
04:33 1 14.6 74 38,460 0.21 2.08 3.24 12.13 19.97 0 4.57 9.16 10.08
04:32 1 14.7 74 38,460 0.2 4.37 3.21 30.65 27.75 0 4.57 8.46 9.31
04:31 1 14.7 74 38,460 0.2 2.1 3.24 24.48 16.99 0 4.57 7.79 8.56
04:30 1 14.7 73 38,460 0.21 2.49 3.24 21.79 18.84 0 4.57 8.51 9.36
04:29 1 14.6 71 38,460 0.2 3.07 3.3 25.47 19.11 0 5.43 9.37 10.31
04:28 1 14.7 74 38,460 0.2 2.34 3.16 15.45 23.9 0 5.43 8.48 9.33
04:27 1 14.7 74 38,460 0.2 3.56 3.04 21.4 20.36 0 3.71 8.49 9.34
04:26 1 14.7 74 38,460 0.2 1.82 3.18 21.8 18.18 0 4.57 7.79 8.56
04:25 1 14.7 73 38,460 0.19 2.13 3.22 17.4 20.99 0 3.71 8.51 9.36
04:24 1 14.7 73 38,460 0.2 2.42 3.24 15 18.9 0 3.71 7.81 8.59
04:23 1 14.7 73 38,460 0.2 3.9 3.25 25.77 20.56 0 5.43 9.23 10.15
04:22 1 14.7 73 38,460 0.19 3.56 3.26 27.03 26.49 0 4.57 8.54 9.4
04:21 1 14.7 74 38,460 0.2 2.39 3.24 16.04 18.83 0 3.71 7.07 7.77
04:19 1 14.7 72 38,460 0.19 3.38 3.26 32.54 19.04 0 3.71 7.16 7.87
04:18 1 14.7 73 38,460 0.19 1.32 3.25 13.2 21.74 0 3.71 7.81 8.6
04:16 1 14.7 72 38,460 0.19 2.42 3.24 20.76 20.05 0 3.71 7.16 7.88
04:13 1 14.7 73 38,460 0.21 2.99 3.25 22.63 20.05 0 4.57 9.23 10.15
04:11 1 14.8 74 38,460 0.19 1.04 3.21 18.11 21 0 3.71 8.49 9.34